Flag for U.S.A. Weather past 2 weeks in Bakersfield, California, U.S.A.

Now
58 °F

Sunny.


Feels Like: 58 °F
Forecast: 45 / 60 °F
Wind: 5 mph from East

Location: Meadows Field

Current Time: Dec 18, 2014 at 10:36:18 AM

Latest Report: Dec 18, 2014 at 9:54 AM


Visibility: 10 mi

Pressure: 30.18 "Hg

Humidity: 47%

Dew point: 38 °F

Location of BakersfieldLocation

Historic Weather in Bakersfield — Graph

°F

Bakersfield temperature yesterday

Maximum temperature yesterday: 56 °F (at 2:01 PM)
Minimum temperature yesterday: 46 °F (at 11:54 PM)
Average temperature yesterday: 51 °F

Past Weeks' High & Low Weather Summary

 TemperatureHumidityPressure
High74 °F (Dec 3, 1:54 PM)97% (Dec 9, 5:54 AM)30.23 "Hg (Dec 9, 5:54 AM)
Low39 °F (Dec 14, 4:54 AM)29% (Dec 15, 3:54 PM)29.58 "Hg (Dec 11, 10:54 PM)
Average56 °F75%30.03 "Hg
* Reported Dec 3 8:54 AM — Dec 18 8:54 AM, Bakersfield, Weather by CustomWeather, © 2014

Note: Actual official high and low records may vary slightly from our data, if they occured in-between our weather recording intervals... More about our weather records

Advertising

Bakersfield weather history for previous 24 hours

 ConditionsComfort  
Time TempWeatherWind HumidityBarometerVisibility
8:54 AM
Dec 18
51 °FSunny.3 mph63%30.17 "Hg10 mi
7:54 AM46 °FSunny.5 mph77%30.15 "Hg10 mi
6:54 AM44 °FClear.No wind79%30.14 "Hg10 mi
5:54 AM48 °FPassing clouds.5 mph71%30.12 "Hg10 mi
4:54 AM47 °FPassing clouds.6 mph74%30.11 "Hg10 mi
3:54 AM45 °FPassing clouds.6 mph82%30.12 "Hg10 mi
2:54 AM48 °FPassing clouds.6 mph74%30.12 "Hg10 mi
1:54 AM49 °FMostly cloudy.6 mph71%30.12 "Hg10 mi
12:54 AM47 °FPassing clouds.No wind80%30.13 "Hg10 mi
11:54 PM
Dec 17
46 °FClear.No wind83%30.13 "Hg10 mi
10:54 PM47 °FClear.5 mph86%30.14 "Hg10 mi
9:54 PM47 °FClear.6 mph83%30.14 "Hg10 mi
8:54 PM49 °FClear.6 mph86%30.14 "Hg10 mi
7:54 PM49 °FClear.3 mph86%30.13 "Hg10 mi
6:54 PM50 °FClear.No wind86%30.11 "Hg10 mi
5:54 PM52 °FClear.6 mph80%30.09 "Hg10 mi
4:54 PM54 °FOvercast.5 mph77%30.09 "Hg10 mi
3:54 PM55 °FPartly sunny.6 mph74%30.08 "Hg10 mi
2:54 PM56 °FSunny.No wind70%30.08 "Hg10 mi
2:01 PM56 °FPassing clouds.No wind70%30.09 "Hg10 mi
12:54 PM55 °FPartly sunny.No wind74%30.10 "Hg10 mi
11:54 AM53 °FCloudy.5 mph77%30.09 "Hg10 mi
10:54 AM52 °FOvercast.3 mph77%30.09 "Hg10 mi
Weather by CustomWeather, © 2014

See weather overviewHow to use our weather pages